[[{"header":{"parameterUnit":"m.s-1","parameterCategory":1,"la1":30.2991,"la2":30.254,"lo1":-89.0895,"lo2":-89.0444,"dy":0.0017,"dx":0.0017,"nx":28,"ny":28,"refTime":"2024-03-31T21:00:00:Z","depth":0,"parameterNumber":2,"parameterNumberName":"U-component_of_WINDS"},"data":[0,0,0,0,0,0,0,0,0,0,0,0,0,0,0,0,0,0,0,0,0,0,0,0,0,0,0,0,0,0,0,0,0,0,0,0,0,0,0,0,0,0,0,0,0,0,0,0,0,0,0,0,0,0,0,0,0,0,-1.405,-1.405,0,-1.4039,-1.4039,-1.4039,-1.4023,-1.4023,-1.4023,-1.4022,-1.4012,-1.4012,-1.4012,0,0,0,0,0,0,0,0,0,0,0,0,0,-1.4056,-1.4056,-1.405,-1.405,-1.4049,-1.4039,-1.4039,-1.4039,-1.4023,-1.4023,-1.4022,-1.4022,-1.4012,-1.4012,-1.4012,0,0,0,0,0,0,0,0,0,0,0,0,0,-1.405,-1.4056,-1.405,-1.404,-1.4039,-1.4039,-1.4039,-1.4039,-1.4023,-1.4023,-1.4022,-1.4022,-1.4012,-1.4012,-1.4012,-1.4021,0,0,-1.4012,-1.4012,0,0,0,0,0,0,0,0,-1.405,-1.405,-1.4042,-1.4041,-1.404,-1.4032,-1.4038,-1.4033,-1.4023,-1.4029,-1.4022,-1.4022,-1.4019,-1.4018,-1.4017,-1.402,-1.402,-1.4012,-1.4012,-1.4012,-1.4012,0,0,0,0,0,0,0,-1.4051,-1.405,-1.4046,-1.4042,-1.4041,-1.4037,-1.4035,-1.4037,-1.4027,-1.4029,-1.4028,-1.4027,-1.4018,-1.4018,-1.4017,-1.402,-1.4012,-1.4012,-1.4012,-1.4012,-1.4028,-1.4028,0,0,0,0,0,0,-1.4053,-1.4051,-1.4046,-1.4045,-1.4044,-1.4037,-1.4035,-1.4035,-1.4027,-1.4025,-1.4027,-1.4026,-1.4018,-1.4017,-1.4017,-1.4025,-1.4012,-1.4012,-1.4012,-1.4027,-1.4028,-1.4028,0,0,0,0,0,0,-1.4053,-1.4052,-1.4046,-1.4048,-1.4047,-1.4037,-1.4037,-1.4035,-1.4034,-1.4025,-1.4024,-1.4028,-1.4017,-1.4017,-1.402,-1.4025,-1.4012,-1.4012,-1.4027,-1.4028,-1.4028,-1.4043,0,0,0,0,0,0,-1.4053,-1.4052,-1.4056,-1.4048,-1.4047,-1.4049,-1.4037,-1.4035,-1.4034,-1.4032,-1.4026,-1.4024,-1.4017,-1.402,-1.402,-1.4024,-1.4012,-1.4026,-1.4027,-1.4028,-1.4042,-1.4044,-1.4046,0,0,0,0,0,-1.4053,-1.4061,-1.4056,-1.4055,-1.405,-1.405,-1.4049,-1.4041,-1.4035,-1.4037,-1.4032,-1.4024,-1.4024,-1.402,-1.402,-1.4025,-1.4026,-1.4027,-1.4028,-1.4041,-1.4044,-1.4046,0,0,0,0,0,0,-1.407,-1.4059,-1.4054,-1.4059,-1.4055,-1.4047,-1.405,-1.4044,-1.4042,-1.404,-1.403,-1.4029,-1.4033,-1.4029,-1.4025,-1.4032,-1.4024,-1.4025,-1.4034,-1.4037,-1.4038,-1.4039,-1.4012,0,0,0,0,0,-1.4074,-1.4074,-1.4065,-1.407,-1.4069,-1.406,-1.4059,-1.4053,-1.4049,-1.4047,-1.4042,-1.4038,-1.4037,-1.4037,-1.4036,-1.4042,-1.404,-1.4045,-1.4047,-1.4049,-1.4049,-1.4051,-1.4053,-1.4031,-1.4031,-1.4031,0,0,-1.4082,-1.4077,-1.4078,-1.4074,-1.407,-1.407,-1.4059,-1.406,-1.406,-1.4048,-1.4049,-1.4045,-1.4041,-1.4045,-1.4046,-1.4042,-1.4055,-1.405,-1.4051,-1.4051,-1.4053,-1.4055,-1.4056,-1.4032,-1.4032,-1.4032,0,0,-1.4098,-1.4094,-1.4097,-1.4094,-1.4088,-1.4082,-1.4083,-1.4076,-1.4073,-1.4074,-1.4065,-1.4065,-1.4064,-1.406,-1.4059,-1.4073,-1.4065,-1.4073,-1.4082,-1.4084,-1.4086,-1.4088,-1.4092,-1.4093,-1.4073,-1.4073,-1.4074,0,-1.4109,-1.4109,-1.41,-1.4101,-1.4099,-1.4088,-1.4091,-1.4089,-1.4083,-1.4082,-1.4077,-1.4075,-1.4071,-1.4074,-1.4077,-1.4077,-1.4077,-1.4073,-1.4087,-1.4088,-1.4089,-1.4093,-1.4094,-1.4074,-1.4074,-1.4074,-1.4074,0,-1.4123,-1.4123,-1.4126,-1.412,-1.4119,-1.4122,-1.4113,-1.4113,-1.4107,-1.4101,-1.4103,-1.4098,-1.4095,-1.4095,-1.409,-1.4097,-1.4094,-1.4088,-1.408,-1.4092,-1.4095,-1.4097,-1.4076,-1.4075,-1.4075,-1.4075,0,0,-1.4148,-1.4137,-1.4138,-1.4135,-1.4128,-1.4128,-1.413,-1.4126,-1.4126,-1.4123,-1.4123,-1.4123,-1.4117,-1.4115,-1.4109,-1.4111,-1.4121,-1.4104,-1.4104,-1.4107,-1.4127,-1.4131,-1.4133,-1.4116,-1.4117,-1.4117,-1.4128,0,-1.4161,-1.4162,-1.4154,-1.4158,-1.4158,-1.4147,-1.4149,-1.4144,-1.4139,-1.4138,-1.4133,-1.4132,-1.4125,-1.4123,-1.4125,-1.4119,-1.4125,-1.4118,-1.4116,-1.4116,-1.4117,-1.4135,-1.4139,-1.415,-1.4129,-1.4129,-1.4129,0,-1.4176,-1.4173,-1.4177,-1.4169,-1.4168,-1.417,-1.4166,-1.4165,-1.416,-1.4156,-1.4154,-1.4147,-1.4148,-1.414,-1.4141,-1.4137,-1.4135,-1.4133,-1.4133,-1.4131,-1.4123,-1.4133,-1.4153,-1.4154,-1.4131,-1.4131,-1.4131,0,-1.4192,-1.4189,-1.4191,-1.4189,-1.418,-1.4181,-1.4177,-1.4172,-1.417,-1.4167,-1.4166,-1.4163,-1.4161,-1.4159,-1.4152,-1.4147,-1.4153,-1.4145,-1.4149,-1.415,-1.415,-1.415,-1.4169,-1.4151,-1.4151,-1.4151,-1.4151,0,-1.4207,-1.421,-1.4198,-1.4199,-1.4201,-1.4192,-1.4194,-1.419,-1.4185,-1.4185,-1.4176,-1.4176,-1.4166,-1.4165,-1.4159,-1.416,-1.416,-1.4156,-1.4154,-1.4156,-1.4157,-1.4155,-1.4153,-1.4152,-1.4152,-1.4152,-1.4151,0,-1.4226,-1.4218,-1.4219,-1.421,-1.4208,-1.421,-1.4203,-1.4203,-1.4198,-1.4197,-1.4197,-1.4188,-1.4186,-1.4178,-1.4175,-1.4171,-1.4173,-1.4171,-1.4175,-1.4174,-1.4178,-1.4177,-1.4195,-1.4197,-1.4179,-1.4179,-1.418,0,-1.4235,-1.4237,-1.4228,-1.4227,-1.4224,-1.4222,-1.422,-1.4212,-1.421,-1.4204,-1.4205,-1.4203,-1.42,-1.4197,-1.4191,-1.4188,-1.4184,-1.4191,-1.4184,-1.4185,-1.4183,-1.4183,-1.4182,-1.4192,-1.4192,-1.4192,-1.4193,0,-1.4252,-1.4248,-1.4246,-1.4242,-1.424,-1.4237,-1.4233,-1.4233,-1.4223,-1.4221,-1.4219,-1.4217,-1.4213,-1.421,-1.4206,-1.4202,-1.4196,-1.4195,-1.4196,-1.4197,-1.4199,-1.4197,-1.4178,-1.4194,-1.4194,-1.4194,-1.4194,-1.4194,-1.4266,-1.4266,-1.426,-1.4257,-1.4254,-1.425,-1.425,-1.4244,-1.4242,-1.4237,-1.4233,-1.4231,-1.4225,-1.4219,-1.4216,-1.4214,-1.4211,-1.4212,-1.4212,-1.4212,-1.4213,-1.42,-1.4214,-1.4214,-1.4214,-1.4214,-1.4214,0,-1.4281,-1.4277,-1.4275,-1.4269,-1.4267,-1.4261,-1.4256,-1.4255,-1.4253,-1.4249,-1.4246,-1.4243,-1.4241,-1.4234,-1.423,-1.423,-1.4227,-1.423,-1.4229,-1.4228,-1.4217,-1.4216,-1.4232,-1.4232,-1.4232,-1.4232,-1.4232,-1.4232,-1.4289,-1.4289,-1.4285,-1.4283,-1.4278,-1.4276,-1.4274,-1.427,-1.4267,-1.4264,-1.4261,-1.4257,-1.4251,-1.4247,-1.4244,-1.4242,-1.4241,-1.4245,-1.4242,-1.4231,-1.4229,-1.4227,-1.4226,-1.4245,-1.4245,-1.4253,-1.4253,-1.4253]},{"header":{"parameterUnit":"m.s-1","parameterCategory":1,"la1":30.2991,"la2":30.254,"lo1":-89.0895,"lo2":-89.0444,"dy":0.0017,"dx":0.0017,"nx":28,"ny":28,"refTime":"2024-03-31T21:00:00:Z","depth":0,"parameterNumber":3,"parameterNumberName":"V-component_of_WINDS"},"data":[0,0,0,0,0,0,0,0,0,0,0,0,0,0,0,0,0,0,0,0,0,0,0,0,0,0,0,0,0,0,0,0,0,0,0,0,0,0,0,0,0,0,0,0,0,0,0,0,0,0,0,0,0,0,0,0,0,0,4.5842,4.5843,0,4.5959,4.596,4.5961,4.5961,4.5959,4.5958,4.5956,4.6074,4.6079,4.6083,0,0,0,0,0,0,0,0,0,0,0,0,0,4.5618,4.5622,4.5842,4.5843,4.5845,4.5958,4.596,4.5962,4.5961,4.5959,4.5957,4.5956,4.6073,4.6078,4.6084,0,0,0,0,0,0,0,0,0,0,0,0,0,4.5723,4.5624,4.5842,4.5858,4.5861,4.5958,4.596,4.5962,4.5961,4.5959,4.5957,4.5955,4.6071,4.6078,4.6084,4.6173,0,0,4.6105,4.6108,0,0,0,0,0,0,0,0,4.5717,4.5731,4.5854,4.5857,4.586,4.5943,4.5925,4.6033,4.5962,4.5923,4.5956,4.5954,4.6032,4.6042,4.6069,4.6178,4.6183,4.6106,4.611,4.6113,4.6115,0,0,0,0,0,0,0,4.571,4.5726,4.5888,4.5856,4.586,4.586,4.5872,4.5945,4.5989,4.5926,4.5927,4.5941,4.6034,4.6062,4.6072,4.6185,4.6106,4.6112,4.6116,4.6119,4.6374,4.6377,0,0,0,0,0,0,4.5699,4.572,4.5884,4.5892,4.5782,4.5866,4.588,4.5919,4.5988,4.5997,4.5942,4.594,4.6052,4.6064,4.6076,4.6186,4.6113,4.6119,4.6123,4.6372,4.6375,4.6378,0,0,0,0,0,0,4.5695,4.5714,4.588,4.5806,4.5827,4.5872,4.5916,4.5922,4.5951,4.6,4.6008,4.5964,4.6051,4.6066,4.6149,4.619,4.6123,4.6129,4.6369,4.6373,4.6376,4.6405,0,0,0,0,0,0,4.5688,4.5712,4.5746,4.5807,4.5831,4.5951,4.5918,4.5926,4.5963,4.5961,4.6023,4.6031,4.605,4.6139,4.6156,4.6198,4.6134,4.6365,4.637,4.6375,4.64,4.6409,4.6417,0,0,0,0,0,4.568,4.5749,4.5748,4.5768,4.5874,4.5953,4.5967,4.5988,4.5966,4.6001,4.6033,4.6029,4.6182,4.6147,4.6167,4.6211,4.6363,4.6369,4.6375,4.6397,4.6407,4.6416,0,0,0,0,0,0,4.5691,4.5757,4.5757,4.5847,4.5895,4.5953,4.5997,4.5999,4.6053,4.6049,4.6073,4.6087,4.617,4.6198,4.6159,4.6301,4.627,4.628,4.628,4.6291,4.6298,4.6291,4.614,0,0,0,0,0,4.5704,4.5762,4.5817,4.5891,4.5915,4.5952,4.5987,4.6,4.605,4.607,4.6108,4.6156,4.6216,4.6254,4.6311,4.6404,4.6418,4.6444,4.6452,4.6459,4.6468,4.6521,4.6534,4.6398,4.6398,4.6398,0,0,4.5731,4.5774,4.581,4.5894,4.5933,4.5994,4.5969,4.6034,4.6079,4.6079,4.6161,4.619,4.6246,4.6335,4.6376,4.6361,4.6509,4.6466,4.6471,4.6477,4.6529,4.6542,4.6553,4.6402,4.6401,4.64,0,0,4.5812,4.585,4.5917,4.5956,4.6015,4.604,4.6056,4.6115,4.6135,4.6217,4.6219,4.6273,4.6374,4.6415,4.6448,4.6546,4.6545,4.6564,4.6607,4.6659,4.667,4.668,4.6717,4.6729,4.6573,4.6573,4.6573,0,4.5838,4.593,4.5951,4.6017,4.6055,4.6059,4.6128,4.6164,4.6239,4.6265,4.6248,4.6377,4.6414,4.6513,4.6538,4.6564,4.6584,4.6558,4.6667,4.6677,4.6686,4.6722,4.6735,4.6575,4.6574,4.6574,4.6574,0,4.596,4.6024,4.6071,4.6145,4.6187,4.6254,4.6286,4.6327,4.6336,4.6362,4.6447,4.6492,4.656,4.6584,4.6592,4.6685,4.6674,4.6661,4.6631,4.6701,4.6735,4.6748,4.6578,4.6577,4.6576,4.6576,0,0,4.6051,4.6137,4.6154,4.6188,4.6254,4.6304,4.6371,4.6438,4.6473,4.6524,4.6583,4.6669,4.6658,4.6697,4.671,4.6755,4.6832,4.6737,4.6738,4.6755,4.694,4.6951,4.6966,4.6831,4.6834,4.6836,4.6936,0,4.6141,4.6262,4.6284,4.6389,4.6449,4.6454,4.6513,4.656,4.6587,4.6642,4.667,4.6733,4.6712,4.6736,4.6781,4.6813,4.687,4.6806,4.6887,4.6889,4.6875,4.6984,4.6995,4.7087,4.6949,4.6951,4.6953,0,4.6262,4.6318,4.643,4.649,4.6516,4.6568,4.6633,4.6684,4.6738,4.6754,4.6798,4.6807,4.6878,4.6842,4.6941,4.6897,4.6931,4.6953,4.6957,4.6967,4.6927,4.6998,4.7117,4.7131,4.6974,4.6972,4.6971,0,4.632,4.6423,4.6504,4.6533,4.6604,4.6641,4.6672,4.6724,4.6763,4.6819,4.6845,4.6908,4.6943,4.6991,4.7017,4.6988,4.7115,4.7081,4.7132,4.7131,4.7159,4.7158,4.7287,4.7178,4.7177,4.7177,4.7177,0,4.6419,4.6488,4.6531,4.6581,4.6659,4.6683,4.676,4.679,4.6836,4.6893,4.6899,4.6952,4.6982,4.7039,4.7059,4.7139,4.7154,4.717,4.7175,4.7171,4.7169,4.7195,4.719,4.7181,4.718,4.7179,4.7179,0,4.6498,4.6529,4.6619,4.6679,4.6696,4.6751,4.6802,4.6852,4.6878,4.6949,4.6968,4.7009,4.7077,4.7107,4.719,4.7204,4.7296,4.7295,4.7279,4.7281,4.7331,4.7327,4.7483,4.7506,4.7379,4.738,4.7381,0,4.656,4.6614,4.668,4.6719,4.6752,4.6813,4.6854,4.688,4.6923,4.6989,4.703,4.7099,4.7155,4.7263,4.7301,4.7365,4.7367,4.7418,4.7377,4.7372,4.7371,4.7369,4.7375,4.7426,4.7427,4.7428,4.7429,0,4.6668,4.6681,4.674,4.6806,4.6854,4.6907,4.6958,4.6989,4.7023,4.707,4.714,4.7184,4.727,4.7338,4.7405,4.7437,4.744,4.7441,4.7457,4.7454,4.7443,4.7452,4.7302,4.7438,4.7437,4.7436,4.7436,4.7435,4.6742,4.6791,4.6846,4.6912,4.6953,4.7001,4.7051,4.7085,4.7144,4.7217,4.7228,4.7303,4.7357,4.7447,4.7482,4.7542,4.753,4.7551,4.7557,4.7563,4.7567,4.7432,4.7554,4.7553,4.7553,4.7553,4.7553,0,4.6853,4.6889,4.6949,4.7021,4.7073,4.7071,4.7128,4.7172,4.7238,4.7288,4.7344,4.7426,4.7492,4.7536,4.7603,4.7643,4.7646,4.766,4.7658,4.7666,4.7573,4.7554,4.7657,4.7657,4.7657,4.7657,4.7657,4.7657,4.6916,4.6999,4.702,4.7124,4.7159,4.7234,4.7267,4.7312,4.7352,4.7443,4.7499,4.7527,4.7575,4.7647,4.7708,4.7719,4.7745,4.776,4.7771,4.7683,4.7673,4.7662,4.7645,4.7765,4.7765,4.7859,4.786,4.7861]}]]